GW3650 Weather Reports


time (UTC)temp
C
wind
direction
speed
KPH
gust
KPH
rain 1hr
cm
rain 24hr
cm
rain mn
cm
humidity
%
barometer
mb
20260509000016 10 0 4.8 12.9 0.00 0.00 0.00 76 1030.3
20260508233017 8 0 3.2 9.7 0.00 0.00 0.00 80 1030.1
20260508230017 7 0 3.2 9.7 0.00 0.00 0.00 77 1029.9
20260508223016 8 0 6.4 12.9 0.00 0.00 0.00 79 1029.7
20260508220016 7 0 1.6 12.9 0.00 0.00 0.00 85 1029.7
20260508213016 6 0 1.6 6.4 0.00 0.00 0.00 81 1029.8
20260508210016 7 0 3.2 6.4 0.00 0.00 0.00 80 1029.9
20260508203016 7 0 4.8 9.7 0.00 0.00 0.00 76 1029.7
20260508200018 8 0 4.8 9.7 0.00 0.00 0.00 78 1029.5
20260508193036 8 0 4.8 12.9 0.00 0.00 0.00 75 1029.6
20260508190016 9 0 6.4 12.9 0.00 0.00 0.00 76 1029.5
20260508183016 10 0 4.8 12.9 0.00 0.00 0.00 74 1029.6
20260508180016 10 0 3.2 6.4 0.00 0.00 0.00 72 1029.6
20260508173018 10 0 3.2 8.0 0.00 0.00 0.00 71 1029.3
20260508170018 11 0 4.8 9.7 0.00 0.00 0.00 70 1029.5
20260508163038 10 0 3.2 8.0 0.00 0.00 0.00 71 1029.5
20260508160017 10 0 3.2 6.4 0.00 0.00 0.00 73 1029.6
20260508153016 10 0.0 3.2 0.00 0.00 0.00 69 1029.8
20260508150016 11 0 3.2 6.4 0.00 0.00 0.00 66 1029.9
20260508143016 11 0 1.6 6.4 0.00 0.00 0.00 65 1029.8
20260508140016 11 0 1.6 8.0 0.00 0.00 0.00 65 1029.7
20260508133016 11 0 3.2 9.7 0.00 0.00 0.00 65 1029.6
20260508130038 11 0 1.6 6.4 0.00 0.00 0.00 68 1029.5
20260508123018 11 0 1.6 3.2 0.00 0.00 0.00 67 1029.1
20260508120017 12 0.0 3.2 0.00 0.00 0.00 66 1028.7
20260508113018 13 0 1.6 4.8 0.00 0.00 0.00 61 1028.6
20260508110017 15 0 4.8 9.7 0.00 0.00 0.00 57 1028.4
20260508103058 16 135 8.0 14.5 0.00 0.00 0.00 57 1028.3
20260508100017 17 113 14.5 19.3 0.00 0.00 0.00 52 1028.5
20260508093018 18 113 17.7 27.4 0.00 0.00 0.00 49 1028.5
20260508090017 20 113 22.5 32.2 0.00 0.00 0.00 47 1028.6
20260508083018 20 113 22.5 40.2 0.00 0.00 0.00 47 1028.5
20260508080017 21 113 24.1 37.0 0.00 0.00 0.00 46 1028.5
20260508073017 21 113 17.7 32.2 0.00 0.00 0.00 46 1028.4
20260508070017 20 113 20.9 40.2 0.00 0.00 0.00 48 1028.7
20260508063017 21 113 17.7 38.6 0.00 0.00 0.00 47 1028.7
20260508060017 21 113 19.3 40.2 0.00 0.00 0.00 48 1028.9
20260508053017 20 113 14.5 48.3 0.00 0.00 0.00 51 1029.3
20260508050017 21 90 11.3 27.4 0.00 0.00 0.00 51 1029.7
20260508043037 20 90 12.9 27.4 0.00 0.00 0.00 53 1030.3
20260508040037 20 90 11.3 25.7 0.00 0.00 0.00 57 1030.8
20260508033017 18 90 12.9 29.0 0.00 0.00 0.00 60 1031.4
20260508030017 18 90 12.9 30.6 0.00 0.00 0.00 64 1031.8
20260508023017 18 90 12.9 24.1 0.00 0.00 0.00 65 1032.2
20260508020016 17 90 12.9 25.7 0.00 0.00 0.00 68 1032.5
20260508013037 16 90 11.3 24.1 0.00 0.00 0.00 73 1033.0
20260508010016 15 113 14.5 25.7 0.00 0.00 0.00 80 1033.0
20260508003016 12 113 8.0 19.3 0.00 0.00 0.00 87 1032.9